EWG2PG LHBP-EDDK

Flight info

Callsign EWG2PG
Flight time 1h 35m
Altitude 38000
Route BADOV DCT MAVOR DCT KATQA DCT VLM DCT ELMEK DCT NAVEK DCT VEXIL DCT KUMER DCT TOLTA/N0407F340 DCT PODER Z189 RUNER T858 KOPAG
Aircraft A20N/M-SDE2E3FGHIRWXY/LB1

Departure

Time 2026-05-07 08:29
Airport Budapest Liszt Ferenc International Airport (LHBP)

Arrival

Time 2026-05-07 10:05
Airport Cologne Bonn Airport (EDDK)
Time Latitude Longitude Altitude Speed Heading
2026-05-07 07:56 47.43333 19.25885 460 ft 0 kts 222°
2026-05-07 08:19 47.43337 19.25889 460 ft 3 kts 232°
2026-05-07 08:19 47.43344 19.25914 458 ft 3 kts 272°
2026-05-07 08:19 47.43339 19.25940 457 ft 3 kts 312°
2026-05-07 08:20 47.43333 19.25948 457 ft 0 kts 324°
2026-05-07 08:20 47.43328 19.25953 456 ft 0 kts 320°
2026-05-07 08:22 47.43328 19.25952 456 ft 0 kts 320°
2026-05-07 08:24 47.43348 19.25932 459 ft 8 kts 328°
2026-05-07 08:24 47.43396 19.25905 459 ft 5 kts 359°
2026-05-07 08:24 47.43443 19.25892 460 ft 10 kts 332°
2026-05-07 08:25 47.43490 19.25813 460 ft 11 kts 304°
2026-05-07 08:25 47.43544 19.25688 460 ft 16 kts 270°
2026-05-07 08:25 47.43481 19.25572 459 ft 13 kts 223°
2026-05-07 08:25 47.43420 19.25491 460 ft 12 kts 223°
2026-05-07 08:26 47.43212 19.25209 460 ft 30 kts 223°
2026-05-07 08:26 47.43186 19.25174 460 ft 30 kts 222°
2026-05-07 08:27 47.43141 19.25114 458 ft 0 kts 222°
2026-05-07 08:28 47.43138 19.25110 459 ft 1 kts 222°
2026-05-07 08:28 47.43133 19.25103 459 ft 1 kts 222°
2026-05-07 08:28 47.43113 19.25071 459 ft 8 kts 236°
2026-05-07 08:28 47.43112 19.24931 460 ft 27 kts 298°
2026-05-07 08:29 47.43351 19.24535 456 ft 84 kts 312°
2026-05-07 08:29 47.43886 19.23666 458 ft 145 kts 312°
2026-05-07 08:29 47.44633 19.22488 939 ft 152 kts 307°
2026-05-07 08:29 47.45329 19.21313 1580 ft 154 kts 306°
2026-05-07 08:30 47.46040 19.20077 2299 ft 161 kts 305°
2026-05-07 08:30 47.46804 19.18752 2799 ft 181 kts 307°
2026-05-07 08:30 47.47720 19.17232 3197 ft 211 kts 309°
2026-05-07 08:30 47.48894 19.15686 3760 ft 242 kts 320°
2026-05-07 08:31 47.50351 19.14212 4455 ft 262 kts 321°
2026-05-07 08:31 47.51787 19.12526 5451 ft 266 kts 317°
2026-05-07 08:31 47.53195 19.10772 6542 ft 268 kts 316°
2026-05-07 08:31 47.54650 19.08954 7539 ft 272 kts 316°
2026-05-07 08:32 47.56105 19.07149 8506 ft 277 kts 316°
2026-05-07 08:32 47.57602 19.05300 9456 ft 283 kts 316°
2026-05-07 08:32 47.59131 19.03417 10305 ft 290 kts 316°
2026-05-07 08:32 47.60732 19.01443 10752 ft 312 kts 316°
2026-05-07 08:33 47.62435 18.99348 11369 ft 324 kts 316°
2026-05-07 08:33 47.64303 18.97352 12149 ft 337 kts 331°
2026-05-07 08:33 47.66614 18.96573 13005 ft 351 kts 358°
2026-05-07 08:33 47.69008 18.97332 13880 ft 362 kts 23°
2026-05-07 08:34 47.71058 18.99524 14637 ft 369 kts 48°
2026-05-07 08:34 47.72531 19.02658 15429 ft 373 kts 59°
2026-05-07 08:34 47.73989 19.05895 16222 ft 378 kts 54°
2026-05-07 08:34 47.75657 19.08941 16981 ft 383 kts 45°
2026-05-07 08:35 47.77833 19.11190 17742 ft 385 kts 22°
2026-05-07 08:35 47.80461 19.12079 18461 ft 385 kts 358°
2026-05-07 08:35 47.83066 19.11458 19075 ft 382 kts 335°
2026-05-07 08:35 47.85308 19.09448 19700 ft 376 kts 313°
2026-05-07 08:36 47.87068 19.06586 20356 ft 376 kts 305°
2026-05-07 08:36 47.88751 19.03563 21002 ft 380 kts 305°
2026-05-07 08:36 47.90471 19.00565 21642 ft 384 kts 306°
2026-05-07 08:36 47.92259 18.97557 22265 ft 389 kts 307°
2026-05-07 08:37 47.94082 18.94562 22908 ft 393 kts 307°
2026-05-07 08:37 47.95930 18.91562 23513 ft 397 kts 308°
2026-05-07 08:37 47.97832 18.88496 24008 ft 401 kts 308°
2026-05-07 08:37 47.99741 18.85428 24500 ft 404 kts 308°
2026-05-07 08:38 48.01639 18.82382 24979 ft 407 kts 308°
2026-05-07 08:38 48.03574 18.79310 25446 ft 410 kts 308°
2026-05-07 08:38 48.05578 18.76165 25919 ft 414 kts 308°
2026-05-07 08:38 48.07575 18.73046 26356 ft 417 kts 309°
2026-05-07 08:39 48.09590 18.69904 26796 ft 420 kts 309°
2026-05-07 08:39 48.11608 18.66752 27223 ft 423 kts 309°
2026-05-07 08:39 48.13646 18.63564 27636 ft 426 kts 309°
2026-05-07 08:39 48.15707 18.60332 28049 ft 429 kts 308°
2026-05-07 08:40 48.17764 18.57099 28438 ft 432 kts 308°
2026-05-07 08:40 48.19837 18.53835 28835 ft 434 kts 308°
2026-05-07 08:40 48.21933 18.50531 29210 ft 437 kts 308°
2026-05-07 08:40 48.24016 18.47242 29577 ft 440 kts 308°
2026-05-07 08:41 48.26157 18.43858 29945 ft 443 kts 308°
2026-05-07 08:41 48.28278 18.40501 30257 ft 445 kts 308°
2026-05-07 08:41 48.30411 18.37121 30607 ft 447 kts 308°
2026-05-07 08:41 48.32553 18.33723 30953 ft 448 kts 308°
2026-05-07 08:42 48.34697 18.30318 31285 ft 449 kts 308°
2026-05-07 08:42 48.36835 18.26918 31606 ft 450 kts 308°
2026-05-07 08:42 48.39006 18.23462 32058 ft 449 kts 307°
2026-05-07 08:42 48.41138 18.20066 32539 ft 446 kts 307°
2026-05-07 08:43 48.43251 18.16694 32982 ft 444 kts 307°
2026-05-07 08:43 48.45379 18.13294 33411 ft 442 kts 307°
2026-05-07 08:43 48.47482 18.09925 33820 ft 441 kts 306°
2026-05-07 08:43 48.49568 18.06580 34173 ft 439 kts 306°
2026-05-07 08:44 48.51670 18.03205 34467 ft 439 kts 306°
2026-05-07 08:44 48.53758 17.99846 34742 ft 439 kts 307°
2026-05-07 08:44 48.55836 17.96499 35021 ft 439 kts 307°
2026-05-07 08:44 48.57923 17.93134 35314 ft 438 kts 307°
2026-05-07 08:45 48.60012 17.89761 35594 ft 438 kts 307°
2026-05-07 08:45 48.62090 17.86403 35857 ft 438 kts 307°
2026-05-07 08:45 48.64165 17.83045 36138 ft 437 kts 307°
2026-05-07 08:45 48.66237 17.79688 36365 ft 437 kts 307°
2026-05-07 08:46 48.68297 17.76346 36621 ft 436 kts 307°
2026-05-07 08:46 48.70375 17.72970 36870 ft 436 kts 307°
2026-05-07 08:46 48.72446 17.69601 37097 ft 436 kts 307°
2026-05-07 08:46 48.74501 17.66254 37343 ft 436 kts 307°
2026-05-07 08:47 48.76564 17.62889 37580 ft 435 kts 307°
2026-05-07 08:47 48.78615 17.59541 37806 ft 435 kts 307°
2026-05-07 08:47 48.80674 17.56175 37941 ft 436 kts 307°
2026-05-07 08:47 48.82766 17.52808 37946 ft 434 kts 309°
2026-05-07 08:48 48.87040 17.46370 37942 ft 433 kts 310°
2026-05-07 08:48 48.91372 17.40011 37940 ft 432 kts 310°
2026-05-07 08:49 48.95705 17.33614 37942 ft 432 kts 310°
2026-05-07 08:49 48.99971 17.27212 37939 ft 430 kts 307°
2026-05-07 08:50 49.03370 17.19853 37945 ft 420 kts 293°
2026-05-07 08:50 49.06072 17.12015 37945 ft 419 kts 291°
2026-05-07 08:51 49.08665 17.03997 37942 ft 419 kts 290°
2026-05-07 08:51 49.11226 16.96017 37943 ft 420 kts 290°
2026-05-07 08:52 49.13805 16.88027 37943 ft 420 kts 290°
2026-05-07 08:52 49.15960 16.81358 37939 ft 421 kts 290°
2026-05-07 08:53 49.18549 16.73330 37939 ft 421 kts 290°
2026-05-07 08:53 49.21149 16.65244 37936 ft 422 kts 290°
2026-05-07 08:54 49.23725 16.57202 37939 ft 422 kts 290°
2026-05-07 08:54 49.26303 16.49129 37940 ft 422 kts 290°
2026-05-07 08:55 49.28867 16.41075 37938 ft 423 kts 290°
2026-05-07 08:55 49.31445 16.32947 37937 ft 423 kts 290°
2026-05-07 08:56 49.34011 16.24832 37934 ft 424 kts 290°
2026-05-07 08:56 49.36582 16.16676 37934 ft 425 kts 290°
2026-05-07 08:57 49.39154 16.08490 37932 ft 425 kts 290°
2026-05-07 08:57 49.41719 16.00299 37934 ft 425 kts 290°
2026-05-07 08:58 49.44282 15.92085 37928 ft 426 kts 290°
2026-05-07 08:58 49.46836 15.83873 37931 ft 427 kts 290°
2026-05-07 08:59 49.49393 15.75626 37925 ft 427 kts 290°
2026-05-07 08:59 49.51950 15.67352 37928 ft 428 kts 290°
2026-05-07 09:00 49.54497 15.59082 37923 ft 429 kts 290°
2026-05-07 09:00 49.57043 15.50786 37936 ft 429 kts 290°
2026-05-07 09:01 49.59589 15.42462 37932 ft 429 kts 290°
2026-05-07 09:01 49.62133 15.34120 37929 ft 429 kts 290°
2026-05-07 09:02 49.64659 15.25803 37932 ft 429 kts 290°
2026-05-07 09:02 49.67198 15.17418 37936 ft 429 kts 290°
2026-05-07 09:03 49.69715 15.09059 37931 ft 429 kts 288°
2026-05-07 09:03 49.71667 15.00457 37933 ft 425 kts 283°
2026-05-07 09:04 49.73410 14.91751 37938 ft 424 kts 282°
2026-05-07 09:04 49.75111 14.82981 37933 ft 424 kts 282°
2026-05-07 09:05 49.76798 14.74256 37934 ft 424 kts 282°
2026-05-07 09:05 49.78491 14.65516 37938 ft 423 kts 282°
2026-05-07 09:06 49.80177 14.56786 37930 ft 423 kts 282°
2026-05-07 09:06 49.81858 14.48050 37928 ft 423 kts 282°
2026-05-07 09:07 49.83526 14.39333 37933 ft 423 kts 282°
2026-05-07 09:07 49.85188 14.30613 37934 ft 422 kts 283°
2026-05-07 09:08 49.86840 14.21900 37941 ft 422 kts 283°
2026-05-07 09:08 49.88494 14.13138 37943 ft 422 kts 283°
2026-05-07 09:09 49.90212 14.04477 37930 ft 424 kts 288°
2026-05-07 09:09 49.92846 13.96260 37934 ft 427 kts 295°
2026-05-07 09:10 49.95757 13.88203 37931 ft 428 kts 296°
2026-05-07 09:10 49.98720 13.80166 37929 ft 428 kts 296°
2026-05-07 09:11 50.01668 13.72115 37927 ft 428 kts 296°
2026-05-07 09:11 50.04586 13.64075 37928 ft 428 kts 296°
2026-05-07 09:12 50.07508 13.55981 37924 ft 429 kts 296°
2026-05-07 09:12 50.10430 13.47862 37920 ft 429 kts 296°
2026-05-07 09:13 50.13344 13.39741 37923 ft 430 kts 296°
2026-05-07 09:13 50.16260 13.31589 37923 ft 430 kts 296°
2026-05-07 09:14 50.19169 13.23433 37930 ft 430 kts 296°
2026-05-07 09:14 50.22079 13.15246 37927 ft 430 kts 296°
2026-05-07 09:15 50.24977 13.07067 37940 ft 431 kts 296°
2026-05-07 09:15 50.27865 12.98889 37938 ft 431 kts 296°
2026-05-07 09:16 50.30665 12.90565 37938 ft 430 kts 294°
2026-05-07 09:16 50.33319 12.82181 37935 ft 430 kts 293°
2026-05-07 09:17 50.35948 12.73805 37931 ft 431 kts 294°
2026-05-07 09:17 50.38686 12.65426 37924 ft 433 kts 299°
2026-05-07 09:18 50.42437 12.57965 37920 ft 437 kts 309°
2026-05-07 09:18 50.46556 12.50906 37922 ft 439 kts 310°
2026-05-07 09:19 50.50722 12.43950 37922 ft 439 kts 310°
2026-05-07 09:19 50.54911 12.36916 37921 ft 439 kts 310°
2026-05-07 09:20 50.59069 12.29874 37928 ft 439 kts 310°
2026-05-07 09:20 50.63205 12.22830 37934 ft 439 kts 310°
2026-05-07 09:21 50.67362 12.15730 37941 ft 439 kts 310°
2026-05-07 09:21 50.71500 12.08644 37944 ft 439 kts 310°
2026-05-07 09:22 50.75629 12.01553 37944 ft 438 kts 310°
2026-05-07 09:22 50.79756 11.94447 37948 ft 438 kts 310°
2026-05-07 09:23 50.83866 11.87351 37962 ft 438 kts 310°
2026-05-07 09:23 50.87978 11.80229 37953 ft 438 kts 310°
2026-05-07 09:24 50.92072 11.73120 37960 ft 438 kts 310°
2026-05-07 09:24 50.96202 11.65928 37958 ft 438 kts 310°
2026-05-07 09:25 51.00305 11.58764 37961 ft 439 kts 310°
2026-05-07 09:25 51.04384 11.51620 37968 ft 439 kts 310°
2026-05-07 09:26 51.08477 11.44432 37965 ft 439 kts 310°
2026-05-07 09:26 51.12579 11.37208 37968 ft 439 kts 310°
2026-05-07 09:27 51.16650 11.30017 37965 ft 439 kts 310°
2026-05-07 09:28 51.22784 11.19142 37968 ft 439 kts 310°
2026-05-07 09:28 51.26175 11.13111 37967 ft 439 kts 310°
2026-05-07 09:29 51.30254 11.05838 37973 ft 439 kts 310°
2026-05-07 09:29 51.34323 10.98561 37967 ft 439 kts 310°
2026-05-07 09:30 51.38376 10.91293 37977 ft 439 kts 310°
2026-05-07 09:30 51.42434 10.83993 37976 ft 438 kts 310°
2026-05-07 09:31 51.46479 10.76695 37978 ft 438 kts 310°
2026-05-07 09:31 51.50535 10.69352 37977 ft 438 kts 308°
2026-05-07 09:32 51.53735 10.61162 37976 ft 433 kts 290°
2026-05-07 09:32 51.55427 10.51923 37979 ft 431 kts 282°
2026-05-07 09:33 51.56728 10.42511 37979 ft 431 kts 280°
2026-05-07 09:33 51.57962 10.33051 37977 ft 431 kts 280°
2026-05-07 09:34 51.59206 10.23643 37979 ft 431 kts 281°
2026-05-07 09:34 51.60464 10.14232 37981 ft 431 kts 281°
2026-05-07 09:35 51.61724 10.04806 37983 ft 431 kts 281°
2026-05-07 09:35 51.62979 9.95351 37979 ft 431 kts 281°
2026-05-07 09:36 51.64219 9.85945 37989 ft 430 kts 280°
2026-05-07 09:36 51.65452 9.76518 37987 ft 431 kts 280°
2026-05-07 09:37 51.66686 9.67024 37999 ft 431 kts 280°
2026-05-07 09:37 51.67908 9.57556 38002 ft 431 kts 280°
2026-05-07 09:38 51.68326 9.48003 37604 ft 427 kts 265°
2026-05-07 09:38 51.68056 9.43253 36991 ft 426 kts 263°
2026-05-07 09:38 51.67688 9.38503 36374 ft 427 kts 261°
2026-05-07 09:38 51.67272 9.33821 35760 ft 427 kts 261°
2026-05-07 09:39 51.66826 9.29048 35056 ft 429 kts 261°
2026-05-07 09:39 51.66376 9.24277 34355 ft 432 kts 261°
2026-05-07 09:39 51.65926 9.19466 33657 ft 433 kts 261°
2026-05-07 09:39 51.65485 9.14695 33152 ft 428 kts 261°
2026-05-07 09:40 51.65057 9.10014 32647 ft 424 kts 262°
2026-05-07 09:40 51.64627 9.05297 32136 ft 420 kts 262°
2026-05-07 09:40 51.64206 9.00672 31636 ft 416 kts 262°
2026-05-07 09:40 51.63788 8.96097 31140 ft 412 kts 262°
2026-05-07 09:41 51.63370 8.91542 30629 ft 409 kts 262°
2026-05-07 09:41 51.62956 8.87050 30259 ft 398 kts 261°
2026-05-07 09:41 51.62555 8.82726 29924 ft 383 kts 261°
2026-05-07 09:41 51.62172 8.78604 29587 ft 369 kts 261°
2026-05-07 09:42 51.61676 8.74640 29272 ft 355 kts 252°
2026-05-07 09:42 51.60742 8.71060 28982 ft 341 kts 240°
2026-05-07 09:42 51.59377 8.68021 28607 ft 331 kts 226°
2026-05-07 09:42 51.57641 8.65646 28127 ft 325 kts 215°
2026-05-07 09:43 51.55767 8.63689 27631 ft 321 kts 211°
2026-05-07 09:43 51.53854 8.61909 27111 ft 318 kts 209°
2026-05-07 09:43 51.51910 8.60201 26593 ft 315 kts 208°
2026-05-07 09:43 51.49977 8.58536 26086 ft 313 kts 208°
2026-05-07 09:44 51.48058 8.56879 25582 ft 311 kts 208°
2026-05-07 09:44 51.46166 8.55229 25083 ft 309 kts 209°
2026-05-07 09:44 51.44305 8.53590 24596 ft 307 kts 209°
2026-05-07 09:44 51.42446 8.51940 24121 ft 305 kts 209°
2026-05-07 09:45 51.40593 8.50288 23661 ft 303 kts 210°
2026-05-07 09:45 51.38747 8.48640 23014 ft 304 kts 210°
2026-05-07 09:45 51.36912 8.47002 22526 ft 301 kts 210°
2026-05-07 09:45 51.35080 8.45368 22134 ft 298 kts 210°
2026-05-07 09:46 51.33293 8.43777 21736 ft 299 kts 210°
2026-05-07 09:46 51.31476 8.42161 21311 ft 295 kts 210°
2026-05-07 09:46 51.29688 8.40550 20854 ft 293 kts 213°
2026-05-07 09:46 51.28089 8.38576 20459 ft 289 kts 226°
2026-05-07 09:47 51.26801 8.36142 20140 ft 288 kts 235°
2026-05-07 09:47 51.25671 8.33513 19754 ft 288 kts 239°
2026-05-07 09:47 51.24630 8.30793 19461 ft 283 kts 241°
2026-05-07 09:47 51.23661 8.28103 19168 ft 275 kts 242°
2026-05-07 09:48 51.22718 8.25423 18609 ft 277 kts 242°
2026-05-07 09:48 51.21777 8.22748 18160 ft 275 kts 242°
2026-05-07 09:48 51.20838 8.20105 17750 ft 269 kts 242°
2026-05-07 09:48 51.19922 8.17556 17385 ft 263 kts 242°
2026-05-07 09:49 51.19010 8.15042 17027 ft 261 kts 242°
2026-05-07 09:49 51.18101 8.12549 16663 ft 261 kts 242°
2026-05-07 09:49 51.17186 8.10048 16283 ft 262 kts 241°
2026-05-07 09:49 51.16268 8.07544 15910 ft 263 kts 242°
2026-05-07 09:50 51.15345 8.05029 15657 ft 257 kts 242°
2026-05-07 09:50 51.14450 8.02595 15292 ft 253 kts 242°
2026-05-07 09:50 51.13572 8.00207 14877 ft 250 kts 242°
2026-05-07 09:50 51.12693 7.97818 14461 ft 249 kts 241°
2026-05-07 09:51 51.11824 7.95457 14061 ft 246 kts 242°
2026-05-07 09:51 51.10959 7.93110 13638 ft 244 kts 241°
2026-05-07 09:51 51.10102 7.90787 13196 ft 243 kts 242°
2026-05-07 09:51 51.09243 7.88461 12753 ft 241 kts 241°
2026-05-07 09:52 51.08403 7.86188 12316 ft 240 kts 241°
2026-05-07 09:52 51.07552 7.83890 11810 ft 242 kts 240°
2026-05-07 09:52 51.06570 7.81710 11360 ft 242 kts 227°
2026-05-07 09:52 51.05282 7.80018 11038 ft 239 kts 213°
2026-05-07 09:53 51.03846 7.78693 10784 ft 239 kts 209°
2026-05-07 09:53 51.02380 7.77443 10459 ft 240 kts 208°
2026-05-07 09:53 51.00895 7.76190 10128 ft 240 kts 208°
2026-05-07 09:53 50.99430 7.74950 9902 ft 236 kts 208°
2026-05-07 09:54 50.97992 7.73730 9658 ft 234 kts 208°
2026-05-07 09:54 50.96562 7.72515 9327 ft 233 kts 208°
2026-05-07 09:54 50.95144 7.71307 9024 ft 233 kts 208°
2026-05-07 09:54 50.93717 7.70092 8721 ft 233 kts 209°
2026-05-07 09:55 50.92286 7.68874 8416 ft 233 kts 209°
2026-05-07 09:55 50.90867 7.67667 8115 ft 232 kts 209°
2026-05-07 09:55 50.89451 7.66463 7808 ft 232 kts 209°
2026-05-07 09:55 50.88031 7.65256 7505 ft 232 kts 209°
2026-05-07 09:56 50.86595 7.64037 7206 ft 232 kts 209°
2026-05-07 09:56 50.85182 7.62837 6896 ft 232 kts 209°
2026-05-07 09:56 50.83754 7.61626 6589 ft 230 kts 209°
2026-05-07 09:56 50.82356 7.60442 6279 ft 228 kts 209°
2026-05-07 09:57 50.80921 7.59224 6075 ft 236 kts 209°
2026-05-07 09:57 50.79489 7.58012 5778 ft 234 kts 209°
2026-05-07 09:57 50.78052 7.56796 5430 ft 235 kts 209°
2026-05-07 09:57 50.76622 7.55588 5158 ft 229 kts 209°
2026-05-07 09:58 50.75231 7.54414 4763 ft 230 kts 209°
2026-05-07 09:58 50.73832 7.53230 4385 ft 227 kts 210°
2026-05-07 09:58 50.72538 7.51798 4012 ft 221 kts 227°
2026-05-07 09:58 50.71653 7.49886 3726 ft 216 kts 249°
2026-05-07 09:59 50.71229 7.47657 3486 ft 213 kts 262°
2026-05-07 09:59 50.70994 7.45342 3190 ft 214 kts 264°
2026-05-07 09:59 50.70794 7.43041 2992 ft 209 kts 265°
2026-05-07 09:59 50.70644 7.40784 2978 ft 204 kts 272°
2026-05-07 10:00 50.70913 7.38640 2984 ft 200 kts 294°
2026-05-07 10:00 50.71603 7.36809 2985 ft 186 kts 311°
2026-05-07 10:00 50.72475 7.35394 2993 ft 178 kts 319°
2026-05-07 10:00 50.73394 7.34085 2987 ft 178 kts 319°
2026-05-07 10:01 50.74314 7.32771 2994 ft 179 kts 319°
2026-05-07 10:01 50.75228 7.31454 2982 ft 174 kts 319°
2026-05-07 10:01 50.76084 7.30212 2944 ft 161 kts 319°
2026-05-07 10:01 50.76893 7.29038 2765 ft 158 kts 319°
2026-05-07 10:02 50.77718 7.27847 2521 ft 160 kts 319°
2026-05-07 10:02 50.78537 7.26665 2300 ft 158 kts 319°
2026-05-07 10:02 50.79323 7.25531 2116 ft 149 kts 318°
2026-05-07 10:02 50.80060 7.24465 1896 ft 140 kts 319°
2026-05-07 10:03 50.80753 7.23467 1705 ft 130 kts 319°
2026-05-07 10:03 50.81417 7.22507 1527 ft 129 kts 317°
2026-05-07 10:03 50.82076 7.21528 1356 ft 130 kts 317°
2026-05-07 10:03 50.82730 7.20577 1137 ft 129 kts 318°
2026-05-07 10:04 50.83390 7.19615 979 ft 129 kts 318°
2026-05-07 10:04 50.84062 7.18656 808 ft 130 kts 319°
2026-05-07 10:04 50.84729 7.17701 625 ft 130 kts 318°
2026-05-07 10:04 50.85387 7.16751 411 ft 127 kts 320°
2026-05-07 10:05 50.86039 7.15814 297 ft 118 kts 318°
2026-05-07 10:05 50.86517 7.15127 281 ft 68 kts 317°
2026-05-07 10:05 50.86741 7.14799 275 ft 30 kts 317°
2026-05-07 10:05 50.86858 7.14552 275 ft 27 kts 289°
2026-05-07 10:06 50.86890 7.14317 275 ft 16 kts 279°
2026-05-07 10:06 50.86897 7.14260 278 ft 0 kts 280°
2026-05-07 10:06 50.86897 7.14258 277 ft 1 kts 280°
2026-05-07 10:06 50.86899 7.14243 274 ft 0 kts 280°
2026-05-07 10:07 50.86899 7.14241 274 ft 1 kts 280°
2026-05-07 10:07 50.86906 7.14179 273 ft 11 kts 281°
2026-05-07 10:08 50.86951 7.14040 271 ft 17 kts 316°
2026-05-07 10:08 50.87054 7.13890 268 ft 26 kts 316°
2026-05-07 10:08 50.87201 7.13676 261 ft 31 kts 317°
2026-05-07 10:08 50.87356 7.13451 256 ft 32 kts 318°
2026-05-07 10:09 50.87511 7.13227 255 ft 29 kts 318°
2026-05-07 10:09 50.87661 7.13009 251 ft 30 kts 319°
2026-05-07 10:09 50.87793 7.12792 244 ft 18 kts 280°
2026-05-07 10:09 50.87814 7.12639 239 ft 14 kts 326°
2026-05-07 10:10 50.87904 7.12611 241 ft 12 kts 353°
2026-05-07 10:10 50.87969 7.12541 242 ft 13 kts 315°
2026-05-07 10:10 50.88029 7.12436 241 ft 4 kts 266°
2026-05-07 10:10 50.88005 7.12388 239 ft 11 kts 232°
2026-05-07 10:11 50.87976 7.12345 237 ft 0 kts 222°
2026-05-07 10:11 50.87973 7.12341 237 ft 0 kts 222°